QPF
0.00 0.00 0.00 0.00 0.00 0.00 0.00 0.00 0.00 0.00 0.00 0.01 0.02 0.01 0.00 0.00 0.00 0.00 0.00 0.00 0.00 0.00 0.00 0.00 0.00 0.00 0.00 0.00 0.00 0.00 0.00 0.00 0.00 0.00 0.00 0.00 0.00 0.00 0.00 0.00 0.00 0.00 0.00
0.00 0.01 0.01 0.01 0.00 0.00 0.00 0.00 0.00 0.00 0.01 0.02 0.02 0.01 0.00 0.00 0.00 0.00 0.00 0.00 0.00 0.00 0.00 0.00 0.00 0.00 0.00 0.00 0.00 0.00 0.00 0.00 0.00 0.00 0.00 0.00 0.00 0.00 0.00 0.00 0.00 0.00 0.00
0.00 0.00 0.01 0.01 0.00 0.00 0.01 0.01 0.01 0.02 0.03 0.02 0.01 0.01 0.01 0.00 0.00 0.00 0.00 0.00 0.00 0.00 0.00 0.00 0.00 0.00 0.00 0.00 0.00 0.00 0.00 0.00 0.00 0.00 0.00 0.00 0.00 0.00 0.00 0.00 0.00 0.00 0.00
0.00 0.00 0.02 0.03 0.01 0.01 0.01 0.03 0.04 0.04 0.03 0.02 0.02 0.02 0.02 0.01 0.02 0.01 0.00 0.00 0.00 0.00 0.00 0.00 0.00 0.00 0.00 0.00 0.00 0.00 0.00 0.00 0.00 0.00 0.00 0.00 0.00 0.00 0.00 0.00 0.00 0.00 0.00
0.00 0.01 0.03 0.08 0.09 0.06 0.03 0.04 0.04 0.04 0.04 0.05 0.03 0.03 0.04 0.04 0.03 0.01 0.00 0.00 0.00 0.00 0.00 0.00 0.00 0.00 0.00 0.00 0.00 0.00 0.00 0.00 0.00 0.00 0.00 0.00 0.00 0.00 0.00 0.00 0.00 0.00 0.00
0.00 0.01 0.04 0.11 0.16 0.11 0.05 0.05 0.06 0.07 0.08 0.09 0.08 0.07 0.07 0.04 0.02 0.01 0.00 0.00 0.00 0.00 0.00 0.00 0.00 0.00 0.00 0.00 0.00 0.00 0.00 0.00 0.00 0.00 0.00 0.00 0.00 0.00 0.00 0.00 0.00 0.00 0.00
0.01 0.02 0.03 0.06 0.12 0.10 0.06 0.07 0.08 0.09 0.09 0.09 0.08 0.06 0.04 0.02 0.01 0.00 0.00 0.00 0.00 0.00 0.00 0.00 0.00 0.00 0.00 0.00 0.00 0.00 0.00 0.00 0.00 0.00 0.00 0.00 0.00 0.00 0.00 0.00 0.00 0.00 0.00
0.02 0.02 0.02 0.04 0.07 0.07 0.07 0.07 0.05 0.05 0.04 0.04 0.04 0.02 0.01 0.00 0.00 0.00 0.00 0.00 0.00 0.00 0.00 0.00 0.00 0.00 0.00 0.00 0.00 0.00 0.00 0.00 0.00 0.00 0.00 0.00 0.00 0.00 0.00 0.00 0.00 0.00 0.00
0.01 0.02 0.02 0.03 0.03 0.03 0.05 0.07 0.06 0.04 0.03 0.02 0.02 0.01 0.01 0.00 0.00 0.00 0.00 0.00 0.00 0.00 0.00 0.00 0.00 0.00 0.00 0.00 0.00 0.00 0.00 0.00 0.00 0.00 0.00 0.00 0.00 0.00 0.00 0.00 0.00 0.01 0.01
0.01 0.02 0.04 0.03 0.02 0.02 0.05 0.05 0.04 0.03 0.03 0.04 0.03 0.01 0.01 0.00 0.00 0.00 0.00 0.00 0.00 0.00 0.00 0.00 0.00 0.00 0.00 0.00 0.00 0.00 0.00 0.00 0.00 0.00 0.01 0.01 0.01 0.01 0.01 0.02 0.02 0.02 0.02
0.01 0.02 0.03 0.03 0.02 0.02 0.05 0.05 0.04 0.05 0.05 0.03 0.01 0.00 0.00 0.00 0.00 0.00 0.00 0.00 0.00 0.00 0.00 0.00 0.00 0.00 0.00 0.00 0.00 0.00 0.00 0.01 0.01 0.02 0.02 0.03 0.03 0.04 0.04 0.04 0.03 0.02 0.02
0.02 0.02 0.03 0.04 0.02 0.02 0.04 0.05 0.05 0.04 0.02 0.01 0.00 0.00 0.00 0.00 0.00 0.00 0.00 0.00 0.00 0.00 0.00 0.00 0.00 0.00 0.00 0.00 0.00 0.01 0.01 0.02 0.03 0.03 0.04 0.04 0.04 0.05 0.04 0.04 0.03 0.03 0.03
0.02 0.03 0.05 0.06 0.05 0.05 0.04 0.04 0.05 0.03 0.01 0.01 0.00 0.00 0.00 0.00 0.00 0.00 0.00 0.00 0.00 0.00 0.00 0.00 0.00 0.00 0.00 0.00 0.01 0.01 0.01 0.02 0.02 0.02 0.02 0.02 0.02 0.03 0.03 0.03 0.03 0.03 0.02
0.02 0.06 0.12 0.12 0.09 0.05 0.03 0.02 0.02 0.01 0.00 0.00 0.00 0.00 0.00 0.00 0.00 0.00 0.00 0.00 0.00 0.00 0.01 0.01 0.01 0.00 0.00 0.00 0.00 0.00 0.00 0.00 0.01 0.01 0.01 0.01 0.02 0.03 0.03 0.03 0.03 0.03 0.03
0.05 0.13 0.17 0.12 0.06 0.03 0.02 0.01 0.02 0.01 0.00 0.00 0.00 0.00 0.00 0.00 0.00 0.00 0.00 0.00 0.01 0.01 0.01 0.00 0.00 0.00 0.00 0.00 0.00 0.00 0.00 0.00 0.00 0.00 0.00 0.01 0.01 0.02 0.02 0.02 0.02 0.03 0.04
0.07 0.08 0.07 0.05 0.03 0.01 0.01 0.01 0.01 0.01 0.01 0.01 0.01 0.01 0.00 0.00 0.00 0.00 0.00 0.01 0.01 0.00 0.00 0.00 0.00 0.00 0.00 0.00 0.00 0.00 0.00 0.00 0.00 0.01 0.01 0.01 0.01 0.01 0.01 0.02 0.03 0.04 0.05
0.05 0.05 0.04 0.03 0.03 0.03 0.02 0.03 0.03 0.03 0.03 0.03 0.02 0.02 0.01 0.01 0.00 0.00 0.00 0.00 0.00 0.00 0.00 0.00 0.00 0.01 0.00 0.00 0.00 0.00 0.00 0.00 0.01 0.01 0.02 0.01 0.01 0.01 0.01 0.02 0.02 0.02 0.03
0.03 0.04 0.05 0.06 0.05 0.06 0.06 0.08 0.09 0.08 0.07 0.06 0.05 0.04 0.02 0.01 0.00 0.00 0.00 0.00 0.00 0.00 0.00 0.00 0.00 0.01 0.01 0.00 0.00 0.00 0.00 0.00 0.01 0.01 0.02 0.01 0.01 0.01 0.02 0.01 0.01 0.01 0.01
0.05 0.07 0.08 0.08 0.08 0.09 0.13 0.17 0.16 0.12 0.09 0.06 0.04 0.02 0.01 0.00 0.00 0.00 0.00 0.00 0.00 0.00 0.00 0.00 0.00 0.01 0.02 0.00 0.00 0.00 0.00 0.00 0.00 0.01 0.01 0.01 0.02 0.03 0.04 0.02 0.01 0.01 0.01
0.07 0.08 0.09 0.09 0.09 0.10 0.11 0.11 0.08 0.05 0.04 0.02 0.01 0.00 0.00 0.00 0.00 0.00 0.00 0.00 0.00 0.00 0.00 0.00 0.00 0.01 0.02 0.01 0.00 0.00 0.00 0.00 0.00 0.00 0.00 0.02 0.04 0.03 0.02 0.01 0.01 0.01 0.01
0.07 0.06 0.06 0.07 0.09 0.09 0.08 0.06 0.04 0.02 0.01 0.00 0.00 0.00 0.00 0.00 0.00 0.00 0.00 0.00 0.00 0.00 0.00 0.00 0.00 0.01 0.01 0.00 0.00 0.00 0.00 0.00 0.00 0.00 0.01 0.03 0.05 0.03 0.02 0.02 0.01 0.02 0.02
0.04 0.03 0.03 0.04 0.04 0.03 0.02 0.01 0.01 0.00 0.00 0.00 0.00 0.00 0.00 0.00 0.00 0.00 0.00 0.00 0.00 0.00 0.00 0.00 0.00 0.01 0.01 0.01 0.00 0.00 0.00 0.00 0.00 0.01 0.02 0.04 0.05 0.03 0.04 0.04 0.04 0.04 0.07
0.03 0.02 0.02 0.01 0.01 0.01 0.01 0.00 0.00 0.00 0.00 0.00 0.00 0.00 0.00 0.00 0.00 0.00 0.00 0.00 0.00 0.00 0.00 0.00 0.00 0.01 0.01 0.01 0.00 0.00 0.00 0.00 0.01 0.02 0.05 0.07 0.08 0.08 0.08 0.09 0.09 0.10 0.10
0.01 0.01 0.01 0.01 0.01 0.01 0.00 0.00 0.00 0.00 0.00 0.00 0.00 0.00 0.00 0.00 0.00 0.00 0.00 0.00 0.01 0.00 0.00 0.01 0.01 0.01 0.01 0.00 0.00 0.00 0.00 0.00 0.01 0.02 0.05 0.11 0.16 0.18 0.17 0.15 0.13 0.10 0.08
0.01 0.01 0.01 0.01 0.01 0.00 0.00 0.00 0.00 0.00 0.00 0.00 0.00 0.00 0.00 0.00 0.00 0.00 0.00 0.01 0.01 0.00 0.00 0.00 0.00 0.00 0.00 0.01 0.01 0.01 0.00 0.01 0.01 0.02 0.03 0.06 0.11 0.14 0.13 0.11 0.09 0.07 0.05
0.00 0.00 0.00 0.00 0.00 0.00 0.00 0.00 0.00 0.00 0.00 0.00 0.00 0.00 0.00 0.00 0.00 0.00 0.01 0.00 0.00 0.00 0.00 0.00 0.00 0.01 0.02 0.02 0.01 0.01 0.01 0.02 0.02 0.02 0.03 0.06 0.10 0.12 0.10 0.08 0.07 0.05 0.04
MSLP
1005.80 1006.68 1007.56 1008.37 1009.05 1009.58 1009.98 1010.30 1010.60 1010.93 1011.35 1011.86 1012.47 1013.14 1013.83 1014.50 1015.10 1015.62 1016.04 1016.38 1016.65 1016.88 1017.10 1017.32 1017.56 1017.81 1018.07 1018.32 1018.55 1018.76 1018.91 1018.99 1019.01 1018.96 1018.82 1018.60 1018.32 1017.99 1017.63 1017.27 1016.93 1016.65 1016.43
1005.50 1006.46 1007.42 1008.29 1009.01 1009.57 1009.99 1010.34 1010.66 1011.04 1011.50 1012.06 1012.71 1013.41 1014.12 1014.78 1015.37 1015.87 1016.27 1016.59 1016.86 1017.11 1017.35 1017.59 1017.85 1018.11 1018.36 1018.59 1018.80 1018.97 1019.10 1019.17 1019.19 1019.15 1019.03 1018.85 1018.60 1018.30 1017.95 1017.59 1017.25 1016.95 1016.70
1005.11 1006.18 1007.24 1008.20 1008.99 1009.61 1010.08 1010.46 1010.82 1011.22 1011.72 1012.30 1012.97 1013.67 1014.37 1015.01 1015.57 1016.04 1016.43 1016.75 1017.03 1017.29 1017.55 1017.83 1018.10 1018.37 1018.61 1018.83 1019.01 1019.14 1019.24 1019.30 1019.32 1019.30 1019.22 1019.09 1018.89 1018.64 1018.34 1018.02 1017.69 1017.38 1017.11
1004.75 1005.94 1007.13 1008.20 1009.08 1009.76 1010.28 1010.69 1011.08 1011.50 1012.00 1012.59 1013.25 1013.94 1014.61 1015.22 1015.75 1016.19 1016.56 1016.88 1017.17 1017.45 1017.75 1018.04 1018.34 1018.61 1018.84 1019.03 1019.18 1019.28 1019.35 1019.40 1019.42 1019.42 1019.39 1019.31 1019.19 1019.00 1018.76 1018.48 1018.18 1017.87 1017.57
1004.56 1005.89 1007.20 1008.36 1009.32 1010.06 1010.62 1011.06 1011.46 1011.89 1012.38 1012.96 1013.59 1014.24 1014.88 1015.45 1015.95 1016.36 1016.71 1017.02 1017.32 1017.63 1017.94 1018.26 1018.56 1018.83 1019.05 1019.21 1019.32 1019.39 1019.43 1019.46 1019.48 1019.50 1019.52 1019.50 1019.44 1019.32 1019.14 1018.90 1018.62 1018.31 1017.99
1004.67 1006.10 1007.50 1008.74 1009.75 1010.53 1011.11 1011.55 1011.95 1012.36 1012.84 1013.38 1013.98 1014.60 1015.19 1015.72 1016.18 1016.57 1016.90 1017.20 1017.50 1017.80 1018.12 1018.44 1018.74 1018.99 1019.19 1019.32 1019.40 1019.43 1019.44 1019.45 1019.48 1019.52 1019.56 1019.59 1019.59 1019.52 1019.39 1019.18 1018.91 1018.59 1018.23
1005.13 1006.62 1008.06 1009.32 1010.35 1011.12 1011.69 1012.12 1012.50 1012.89 1013.34 1013.86 1014.42 1015.00 1015.55 1016.04 1016.46 1016.81 1017.11 1017.39 1017.67 1017.96 1018.27 1018.57 1018.85 1019.08 1019.25 1019.34 1019.38 1019.38 1019.36 1019.36 1019.38 1019.42 1019.49 1019.55 1019.57 1019.54 1019.43 1019.24 1018.97 1018.64 1018.26
1005.90 1007.40 1008.82 1010.05 1011.04 1011.78 1012.31 1012.71 1013.06 1013.43 1013.86 1014.35 1014.88 1015.42 1015.92 1016.37 1016.75 1017.06 1017.32 1017.57 1017.81 1018.08 1018.35 1018.62 1018.86 1019.06 1019.19 1019.25 1019.25 1019.22 1019.18 1019.15 1019.16 1019.21 1019.27 1019.34 1019.38 1019.36 1019.26 1019.07 1018.80 1018.45 1018.05
1006.89 1008.34 1009.69 1010.85 1011.76 1012.43 1012.91 1013.27 1013.59 1013.94 1014.35 1014.81 1015.32 1015.83 1016.30 1016.70 1017.03 1017.29 1017.50 1017.70 1017.90 1018.11 1018.34 1018.57 1018.77 1018.93 1019.02 1019.05 1019.03 1018.97 1018.91 1018.86 1018.85 1018.88 1018.94 1019.00 1019.03 1019.00 1018.90 1018.71 1018.43 1018.07 1017.66
1007.98 1009.33 1010.57 1011.61 1012.41 1013.00 1013.42 1013.75 1014.05 1014.39 1014.79 1015.25 1015.73 1016.21 1016.64 1016.99 1017.27 1017.47 1017.63 1017.76 1017.91 1018.07 1018.25 1018.44 1018.60 1018.73 1018.80 1018.81 1018.77 1018.69 1018.61 1018.55 1018.52 1018.52 1018.55 1018.59 1018.59 1018.55 1018.43 1018.23 1017.95 1017.59 1017.18
1009.05 1010.28 1011.37 1012.27 1012.97 1013.47 1013.84 1014.15 1014.45 1014.80 1015.20 1015.65 1016.11 1016.55 1016.94 1017.24 1017.45 1017.59 1017.69 1017.77 1017.87 1017.98 1018.13 1018.28 1018.43 1018.54 1018.60 1018.60 1018.56 1018.47 1018.38 1018.30 1018.24 1018.22 1018.21 1018.20 1018.17 1018.10 1017.96 1017.74 1017.45 1017.10 1016.71
1010.03 1011.11 1012.07 1012.84 1013.43 1013.87 1014.21 1014.52 1014.84 1015.20 1015.60 1016.05 1016.49 1016.89 1017.22 1017.45 1017.60 1017.68 1017.72 1017.76 1017.81 1017.90 1018.03 1018.17 1018.32 1018.43 1018.50 1018.52 1018.47 1018.40 1018.29 1018.19 1018.10 1018.03 1017.97 1017.91 1017.84 1017.72 1017.55 1017.32 1017.03 1016.68 1016.31
1010.90 1011.86 1012.68 1013.34 1013.86 1014.26 1014.59 1014.91 1015.25 1015.63 1016.05 1016.48 1016.88 1017.23 1017.49 1017.66 1017.74 1017.76 1017.76 1017.76 1017.80 1017.88 1018.01 1018.17 1018.33 1018.47 1018.56 1018.59 1018.57 1018.49 1018.38 1018.25 1018.12 1018.00 1017.88 1017.76 1017.62 1017.45 1017.24 1016.98 1016.68 1016.35 1015.99
1011.71 1012.55 1013.27 1013.85 1014.32 1014.71 1015.05 1015.40 1015.76 1016.16 1016.56 1016.96 1017.32 1017.60 1017.79 1017.88 1017.90 1017.87 1017.83 1017.82 1017.85 1017.95 1018.10 1018.29 1018.49 1018.66 1018.78 1018.84 1018.83 1018.75 1018.62 1018.46 1018.29 1018.10 1017.91 1017.72 1017.51 1017.28 1017.02 1016.72 1016.41 1016.06 1015.71
1012.52 1013.28 1013.92 1014.44 1014.88 1015.27 1015.63 1015.99 1016.38 1016.77 1017.16 1017.51 1017.79 1017.99 1018.11 1018.13 1018.09 1018.02 1017.96 1017.95 1018.00 1018.13 1018.31 1018.54 1018.77 1018.97 1019.12 1019.20 1019.19 1019.10 1018.95 1018.75 1018.52 1018.27 1018.00 1017.72 1017.44 1017.13 1016.81 1016.47 1016.12 1015.76 1015.39
1013.39 1014.08 1014.66 1015.15 1015.57 1015.96 1016.33 1016.70 1017.08 1017.45 1017.79 1018.07 1018.28 1018.40 1018.43 1018.39 1018.30 1018.21 1018.15 1018.16 1018.23 1018.39 1018.61 1018.87 1019.12 1019.35 1019.50 1019.58 1019.56 1019.45 1019.27 1019.02 1018.72 1018.40 1018.05 1017.69 1017.32 1016.94 1016.55 1016.16 1015.76 1015.37 1014.98
1014.35 1014.98 1015.51 1015.96 1016.36 1016.74 1017.10 1017.46 1017.80 1018.12 1018.40 1018.60 1018.73 1018.77 1018.73 1018.64 1018.53 1018.44 1018.39 1018.42 1018.53 1018.71 1018.96 1019.23 1019.49 1019.71 1019.85 1019.90 1019.85 1019.70 1019.47 1019.16 1018.81 1018.41 1017.99 1017.55 1017.10 1016.65 1016.19 1015.74 1015.29 1014.86 1014.44
1015.36 1015.93 1016.41 1016.82 1017.19 1017.53 1017.85 1018.16 1018.45 1018.71 1018.90 1019.03 1019.08 1019.06 1018.98 1018.87 1018.76 1018.68 1018.67 1018.72 1018.86 1019.07 1019.32 1019.58 1019.81 1019.99 1020.09 1020.09 1019.99 1019.79 1019.51 1019.15 1018.73 1018.28 1017.79 1017.28 1016.76 1016.24 1015.72 1015.21 1014.72 1014.25 1013.80
1016.35 1016.86 1017.28 1017.63 1017.94 1018.23 1018.49 1018.74 1018.96 1019.13 1019.25 1019.31 1019.31 1019.25 1019.16 1019.06 1018.98 1018.94 1018.97 1019.06 1019.23 1019.44 1019.67 1019.90 1020.08 1020.20 1020.23 1020.16 1020.00 1019.74 1019.40 1018.99 1018.52 1018.01 1017.47 1016.91 1016.34 1015.77 1015.20 1014.65 1014.12 1013.62 1013.15
1017.24 1017.67 1018.01 1018.30 1018.54 1018.75 1018.94 1019.11 1019.25 1019.35 1019.41 1019.42 1019.40 1019.34 1019.27 1019.21 1019.19 1019.22 1019.30 1019.44 1019.62 1019.83 1020.03 1020.20 1020.32 1020.35 1020.30 1020.16 1019.92 1019.60 1019.20 1018.75 1018.25 1017.70 1017.13 1016.53 1015.93 1015.32 1014.71 1014.13 1013.58 1013.06 1012.59
1017.92 1018.28 1018.55 1018.76 1018.93 1019.06 1019.17 1019.27 1019.34 1019.38 1019.40 1019.39 1019.37 1019.35 1019.34 1019.35 1019.41 1019.52 1019.67 1019.85 1020.05 1020.25 1020.41 1020.52 1020.55 1020.50 1020.37 1020.14 1019.83 1019.46 1019.02 1018.53 1018.00 1017.44 1016.85 1016.23 1015.60 1014.97 1014.35 1013.75 1013.19 1012.67 1012.20
1018.37 1018.65 1018.85 1018.99 1019.09 1019.16 1019.21 1019.24 1019.26 1019.27 1019.28 1019.28 1019.29 1019.33 1019.40 1019.51 1019.66 1019.85 1020.07 1020.30 1020.52 1020.70 1020.83 1020.87 1020.83 1020.70 1020.48 1020.19 1019.82 1019.40 1018.93 1018.42 1017.88 1017.30 1016.70 1016.07 1015.43 1014.79 1014.16 1013.56 1013.00 1012.49 1012.04
1018.58 1018.80 1018.94 1019.03 1019.08 1019.10 1019.11 1019.10 1019.10 1019.10 1019.12 1019.15 1019.22 1019.33 1019.49 1019.69 1019.93 1020.21 1020.49 1020.76 1021.00 1021.17 1021.27 1021.27 1021.16 1020.97 1020.69 1020.34 1019.93 1019.47 1018.98 1018.46 1017.91 1017.33 1016.73 1016.10 1015.46 1014.81 1014.17 1013.57 1013.02 1012.53 1012.10
1018.59 1018.77 1018.88 1018.94 1018.97 1018.97 1018.96 1018.95 1018.95 1018.96 1019.00 1019.08 1019.20 1019.38 1019.61 1019.90 1020.22 1020.56 1020.89 1021.20 1021.45 1021.62 1021.70 1021.66 1021.52 1021.29 1020.97 1020.59 1020.16 1019.69 1019.19 1018.66 1018.11 1017.53 1016.93 1016.30 1015.65 1015.00 1014.36 1013.77 1013.22 1012.74 1012.34
1018.47 1018.63 1018.73 1018.80 1018.83 1018.85 1018.85 1018.86 1018.88 1018.92 1018.99 1019.10 1019.27 1019.50 1019.78 1020.11 1020.48 1020.86 1021.22 1021.55 1021.81 1021.98 1022.05 1022.00 1021.86 1021.61 1021.29 1020.90 1020.47 1020.00 1019.50 1018.98 1018.43 1017.85 1017.24 1016.61 1015.96 1015.31 1014.68 1014.08 1013.54 1013.07 1012.68
1018.31 1018.46 1018.59 1018.68 1018.75 1018.80 1018.85 1018.89 1018.94 1019.00 1019.10 1019.23 1019.42 1019.66 1019.95 1020.29 1020.67 1021.05 1021.42 1021.75 1022.02 1022.20 1022.27 1022.24 1022.10 1021.88 1021.57 1021.20 1020.79 1020.34 1019.85 1019.34 1018.80 1018.23 1017.63 1017.00 1016.35 1015.70 1015.06 1014.47 1013.93 1013.46 1013.07
Thickness
5815 5800 5792 5787 5778 5771 5768 5768 5767 5765 5758 5750 5741 5733 5726 5721 5715 5709 5702 5697 5692 5686 5683 5679 5673 5667 5662 5657 5655 5650 5644 5641 5639 5636 5635 5636 5635 5633 5631 5629 5627 5624 5620
5805 5788 5783 5778 5770 5762 5759 5760 5760 5757 5752 5745 5738 5730 5721 5714 5706 5698 5692 5687 5683 5678 5673 5667 5663 5658 5652 5649 5646 5640 5633 5628 5625 5620 5618 5615 5616 5618 5614 5610 5608 5604 5601
5799 5783 5775 5771 5764 5755 5751 5751 5750 5746 5742 5737 5730 5719 5710 5702 5693 5686 5681 5677 5673 5668 5662 5657 5652 5645 5640 5636 5630 5625 5619 5611 5608 5607 5603 5597 5595 5592 5594 5591 5588 5585 5581
5802 5783 5770 5763 5756 5749 5746 5743 5739 5734 5730 5726 5719 5709 5699 5692 5685 5678 5671 5667 5663 5657 5652 5646 5639 5632 5627 5623 5616 5608 5602 5598 5593 5590 5588 5584 5579 5573 5572 5570 5570 5568 5564
5799 5780 5765 5755 5748 5741 5736 5733 5728 5722 5718 5714 5709 5702 5693 5683 5675 5668 5660 5657 5651 5646 5640 5633 5625 5618 5614 5609 5602 5595 5588 5583 5578 5573 5569 5565 5562 5559 5555 5553 5551 5550 5548
5788 5771 5756 5745 5736 5730 5725 5720 5714 5708 5704 5700 5695 5689 5680 5672 5665 5657 5651 5645 5640 5635 5628 5620 5612 5606 5600 5595 5590 5582 5577 5571 5563 5556 5552 5547 5543 5539 5536 5535 5535 5533 5532
5769 5754 5741 5731 5722 5716 5711 5706 5700 5693 5689 5685 5680 5674 5667 5662 5656 5648 5641 5635 5630 5622 5613 5607 5599 5594 5588 5582 5577 5571 5566 5559 5552 5544 5538 5533 5528 5523 5519 5517 5517 5515 5514
5749 5737 5728 5720 5712 5705 5698 5693 5688 5682 5676 5671 5666 5661 5655 5652 5645 5635 5631 5624 5616 5607 5600 5593 5588 5582 5576 5571 5565 5558 5555 5549 5542 5534 5528 5522 5517 5511 5506 5501 5498 5498 5498
5730 5721 5714 5708 5701 5694 5689 5684 5677 5670 5663 5657 5651 5646 5639 5635 5630 5622 5617 5610 5601 5594 5587 5581 5575 5569 5563 5558 5552 5546 5542 5537 5531 5525 5519 5513 5507 5502 5496 5490 5484 5479 5479
5716 5709 5702 5696 5690 5684 5678 5674 5667 5659 5651 5644 5638 5631 5625 5620 5615 5609 5601 5594 5587 5579 5572 5567 5561 5556 5551 5546 5541 5536 5532 5527 5520 5513 5507 5500 5494 5489 5482 5476 5470 5465 5461
5702 5696 5691 5685 5678 5672 5667 5660 5653 5645 5636 5630 5624 5618 5612 5606 5600 5596 5590 5582 5574 5567 5561 5555 5549 5545 5540 5536 5531 5526 5521 5516 5508 5501 5494 5488 5481 5475 5469 5462 5457 5452 5448
5688 5683 5678 5672 5667 5660 5654 5647 5640 5632 5624 5617 5610 5604 5599 5594 5589 5584 5578 5571 5563 5556 5550 5544 5539 5534 5530 5525 5519 5514 5509 5501 5494 5487 5480 5474 5468 5460 5454 5448 5443 5439 5435
5675 5670 5664 5659 5654 5648 5641 5634 5627 5620 5612 5605 5598 5591 5587 5582 5577 5571 5565 5557 5551 5545 5539 5534 5529 5524 5519 5512 5505 5498 5491 5484 5477 5471 5465 5459 5452 5445 5439 5433 5429 5425 5423
5661 5657 5650 5644 5641 5637 5630 5623 5615 5608 5601 5593 5586 5579 5574 5570 5564 5557 5551 5544 5538 5532 5527 5523 5518 5512 5504 5494 5485 5479 5472 5466 5460 5455 5449 5443 5436 5430 5425 5421 5417 5415 5413
5646 5642 5635 5630 5626 5621 5614 5606 5598 5590 5584 5578 5572 5566 5561 5556 5549 5543 5538 5532 5525 5519 5513 5509 5503 5496 5487 5475 5467 5461 5456 5449 5446 5441 5435 5430 5424 5419 5414 5411 5408 5406 5404
5635 5629 5623 5616 5611 5605 5597 5589 5580 5573 5567 5562 5557 5552 5547 5540 5534 5529 5525 5519 5511 5504 5498 5493 5487 5480 5470 5458 5451 5445 5440 5437 5434 5430 5425 5419 5415 5410 5407 5404 5402 5399 5398
5625 5617 5606 5598 5592 5586 5579 5570 5562 5557 5551 5546 5540 5536 5531 5526 5520 5516 5511 5503 5496 5489 5483 5478 5471 5463 5454 5445 5437 5431 5428 5426 5421 5417 5413 5410 5406 5403 5402 5401 5399 5397 5396
5607 5595 5585 5578 5573 5567 5560 5553 5546 5539 5534 5527 5524 5522 5519 5514 5508 5500 5493 5486 5479 5474 5468 5463 5456 5449 5442 5433 5426 5419 5417 5415 5410 5406 5402 5400 5398 5397 5395 5395 5396 5397 5397
5583 5573 5566 5560 5555 5549 5542 5536 5531 5526 5522 5518 5515 5512 5507 5502 5494 5485 5478 5470 5465 5460 5454 5448 5441 5436 5429 5422 5415 5407 5407 5405 5402 5398 5395 5393 5392 5391 5389 5390 5394 5399 5402
5560 5553 5548 5543 5537 5532 5527 5523 5520 5517 5514 5511 5508 5501 5493 5486 5480 5471 5464 5458 5453 5447 5441 5435 5430 5425 5418 5410 5403 5396 5396 5395 5393 5392 5391 5391 5389 5388 5387 5390 5395 5401 5407
5541 5536 5531 5527 5523 5520 5517 5515 5513 5510 5507 5503 5497 5489 5480 5475 5467 5459 5453 5447 5441 5436 5430 5425 5420 5414 5408 5401 5393 5388 5386 5384 5385 5388 5390 5389 5388 5388 5390 5393 5399 5405 5409
5526 5521 5517 5513 5511 5510 5509 5508 5506 5503 5499 5493 5485 5476 5467 5461 5455 5448 5442 5436 5430 5425 5419 5413 5408 5403 5397 5391 5385 5382 5380 5380 5382 5386 5387 5388 5389 5391 5394 5399 5404 5410 5414
5514 5511 5508 5506 5505 5504 5503 5501 5497 5494 5488 5480 5472 5464 5455 5448 5442 5437 5431 5425 5419 5413 5406 5400 5395 5392 5388 5383 5378 5377 5379 5381 5382 5384 5387 5389 5392 5395 5400 5404 5408 5413 5417
5506 5505 5504 5504 5503 5502 5498 5493 5488 5482 5475 5469 5464 5456 5447 5439 5431 5426 5420 5413 5406 5400 5394 5389 5385 5382 5379 5376 5373 5375 5378 5381 5383 5385 5389 5392 5394 5398 5402 5407 5411 5414 5416
5506 5506 5505 5503 5499 5494 5488 5483 5477 5472 5466 5461 5455 5448 5439 5430 5422 5416 5407 5401 5393 5389 5384 5380 5376 5374 5372 5369 5369 5371 5376 5379 5381 5386 5390 5393 5397 5401 5404 5408 5412 5414 5416
5509 5506 5503 5498 5492 5487 5481 5475 5469 5463 5458 5454 5447 5440 5430 5421 5414 5408 5401 5392 5388 5382 5377 5372 5368 5368 5366 5367 5369 5373 5376 5380 5383 5387 5389 5392 5396 5401 5405 5408 5411 5413 5415